BOX13T EDDM-EDDV

Flight info

Callsign BOX13T
Flight time 0h 48m
Altitude 35000
Route INPUD2N/26R INPUD Y102 UPALA M726 LASTO M852 BIRKA T803 GITEX GITEX1Z
Aircraft B77L/H-SDE1E2E3FGHIJ2J3J4J5M1RWXY/LB1D1

Departure

Time 2026-05-07 14:16
Airport Munich Airport (EDDM)

Arrival

Time 2026-05-07 15:05
Airport Hannover Airport (EDDV)
Time Latitude Longitude Altitude Speed Heading
2026-05-07 13:27 48.34870 11.76946 1471 ft 0 kts 353°
2026-05-07 14:04 48.34869 11.76947 1471 ft 2 kts 353°
2026-05-07 14:05 48.34844 11.76951 1471 ft 4 kts 353°
2026-05-07 14:05 48.34818 11.76955 1471 ft 4 kts 353°
2026-05-07 14:05 48.34794 11.76960 1467 ft 4 kts 359°
2026-05-07 14:05 48.34773 11.76948 1459 ft 4 kts 58°
2026-05-07 14:06 48.34764 11.76913 1461 ft 2 kts 79°
2026-05-07 14:06 48.34763 11.76909 1465 ft 0 kts 79°
2026-05-07 14:08 48.34766 11.76932 1462 ft 7 kts 79°
2026-05-07 14:08 48.34775 11.77016 1462 ft 8 kts 82°
2026-05-07 14:08 48.34782 11.77117 1471 ft 10 kts 84°
2026-05-07 14:09 48.34789 11.77219 1469 ft 11 kts 84°
2026-05-07 14:09 48.34792 11.77334 1461 ft 11 kts 98°
2026-05-07 14:09 48.34741 11.77408 1461 ft 11 kts 173°
2026-05-07 14:09 48.34664 11.77409 1465 ft 11 kts 168°
2026-05-07 14:10 48.34588 11.77429 1468 ft 11 kts 173°
2026-05-07 14:10 48.34526 11.77477 1467 ft 11 kts 104°
2026-05-07 14:10 48.34530 11.77594 1469 ft 11 kts 80°
2026-05-07 14:10 48.34541 11.77710 1466 ft 11 kts 84°
2026-05-07 14:11 48.34549 11.77827 1462 ft 11 kts 84°
2026-05-07 14:11 48.34559 11.77972 1467 ft 16 kts 83°
2026-05-07 14:11 48.34572 11.78139 1471 ft 16 kts 83°
2026-05-07 14:11 48.34586 11.78315 1471 ft 20 kts 83°
2026-05-07 14:12 48.34602 11.78530 1471 ft 21 kts 83°
2026-05-07 14:12 48.34620 11.78745 1461 ft 21 kts 83°
2026-05-07 14:12 48.34636 11.78961 1465 ft 21 kts 83°
2026-05-07 14:12 48.34652 11.79175 1465 ft 21 kts 84°
2026-05-07 14:13 48.34669 11.79392 1466 ft 21 kts 83°
2026-05-07 14:13 48.34686 11.79607 1468 ft 21 kts 83°
2026-05-07 14:13 48.34704 11.79823 1471 ft 21 kts 83°
2026-05-07 14:13 48.34721 11.80038 1463 ft 21 kts 83°
2026-05-07 14:14 48.34743 11.80236 1468 ft 18 kts 78°
2026-05-07 14:14 48.34752 11.80381 1462 ft 7 kts 115°
2026-05-07 14:14 48.34705 11.80403 1461 ft 8 kts 170°
2026-05-07 14:14 48.34621 11.80421 1460 ft 17 kts 172°
2026-05-07 14:15 48.34513 11.80436 1461 ft 5 kts 176°
2026-05-07 14:15 48.34483 11.80412 1460 ft 5 kts 235°
2026-05-07 14:15 48.34473 11.80360 1472 ft 5 kts 258°
2026-05-07 14:15 48.34450 11.80104 1462 ft 63 kts 263°
2026-05-07 14:16 48.34363 11.78964 1461 ft 154 kts 264°
2026-05-07 14:16 48.34209 11.77151 2038 ft 180 kts 264°
2026-05-07 14:16 48.34061 11.75259 2913 ft 192 kts 265°
2026-05-07 14:16 48.33870 11.73105 3196 ft 225 kts 265°
2026-05-07 14:17 48.33646 11.70649 3635 ft 249 kts 264°
2026-05-07 14:17 48.33679 11.68082 4406 ft 250 kts 290°
2026-05-07 14:17 48.34699 11.65961 5380 ft 257 kts 320°
2026-05-07 14:17 48.36289 11.64679 6304 ft 265 kts 337°
2026-05-07 14:18 48.38114 11.64017 7176 ft 274 kts 347°
2026-05-07 14:18 48.40012 11.63596 8121 ft 278 kts 349°
2026-05-07 14:18 48.41941 11.63206 9083 ft 283 kts 349°
2026-05-07 14:18 48.43906 11.62785 9988 ft 287 kts 349°
2026-05-07 14:19 48.45928 11.62333 10628 ft 303 kts 348°
2026-05-07 14:19 48.48112 11.61830 10869 ft 333 kts 348°
2026-05-07 14:19 48.50497 11.61274 11269 ft 357 kts 349°
2026-05-07 14:19 48.52958 11.60697 12075 ft 367 kts 349°
2026-05-07 14:20 48.55511 11.60103 12998 ft 375 kts 348°
2026-05-07 14:20 48.58072 11.59358 13964 ft 375 kts 341°
2026-05-07 14:20 48.60524 11.57981 14876 ft 378 kts 334°
2026-05-07 14:20 48.62960 11.56405 15791 ft 384 kts 334°
2026-05-07 14:21 48.65443 11.54865 16740 ft 388 kts 335°
2026-05-07 14:21 48.67969 11.53353 17584 ft 393 kts 335°
2026-05-07 14:21 48.70534 11.51854 18396 ft 399 kts 336°
2026-05-07 14:21 48.73141 11.50346 19210 ft 404 kts 336°
2026-05-07 14:22 48.75777 11.48822 19966 ft 408 kts 336°
2026-05-07 14:22 48.78447 11.47281 20686 ft 413 kts 336°
2026-05-07 14:22 48.81146 11.45719 21450 ft 417 kts 336°
2026-05-07 14:22 48.83837 11.44157 22165 ft 422 kts 336°
2026-05-07 14:23 48.86631 11.42531 22887 ft 427 kts 336°
2026-05-07 14:23 48.89416 11.40907 23604 ft 431 kts 336°
2026-05-07 14:23 48.92224 11.39264 24282 ft 435 kts 336°
2026-05-07 14:23 48.95019 11.37621 24915 ft 439 kts 336°
2026-05-07 14:24 48.97892 11.35939 25555 ft 444 kts 336°
2026-05-07 14:24 49.00790 11.34247 26159 ft 449 kts 336°
2026-05-07 14:24 49.03718 11.32530 26740 ft 452 kts 336°
2026-05-07 14:24 49.06672 11.30795 27270 ft 458 kts 336°
2026-05-07 14:25 49.09655 11.29038 27805 ft 462 kts 336°
2026-05-07 14:25 49.12672 11.27261 28356 ft 467 kts 336°
2026-05-07 14:25 49.15714 11.25467 28970 ft 470 kts 336°
2026-05-07 14:25 49.18803 11.23796 29482 ft 474 kts 341°
2026-05-07 14:26 49.21992 11.22683 29989 ft 479 kts 348°
2026-05-07 14:26 49.25293 11.22065 30637 ft 478 kts 355°
2026-05-07 14:26 49.28622 11.21998 31296 ft 478 kts 359°
2026-05-07 14:26 49.31948 11.22080 31855 ft 479 kts 359°
2026-05-07 14:27 49.35286 11.22162 32346 ft 481 kts 359°
2026-05-07 14:27 49.38624 11.22230 32924 ft 480 kts 359°
2026-05-07 14:27 49.41967 11.22272 33437 ft 480 kts 359°
2026-05-07 14:27 49.45306 11.22313 33920 ft 481 kts 359°
2026-05-07 14:28 49.47532 11.22338 34081 ft 484 kts 358°
2026-05-07 14:28 49.54297 11.22393 34050 ft 484 kts 358°
2026-05-07 14:29 49.62071 11.22440 34063 ft 480 kts 358°
2026-05-07 14:29 49.67662 11.22458 34033 ft 479 kts 358°
2026-05-07 14:30 49.74300 11.22480 34025 ft 480 kts 358°
2026-05-07 14:30 49.80975 11.22516 34029 ft 479 kts 358°
2026-05-07 14:31 49.88722 11.22540 34030 ft 479 kts 358°
2026-05-07 14:31 49.94293 11.22555 34030 ft 479 kts 358°
2026-05-07 14:32 50.01054 11.22581 34336 ft 491 kts 358°
2026-05-07 14:32 50.04432 11.22591 34823 ft 488 kts 359°
2026-05-07 14:32 50.07812 11.22598 35449 ft 485 kts 359°
2026-05-07 14:32 50.11198 11.22616 35771 ft 488 kts 359°
2026-05-07 14:33 50.14611 11.22642 35947 ft 493 kts 359°
2026-05-07 14:33 50.21506 11.22693 36011 ft 495 kts 359°
2026-05-07 14:34 50.28354 11.22748 36004 ft 489 kts 359°
2026-05-07 14:34 50.35139 11.22793 36011 ft 487 kts 358°
2026-05-07 14:35 50.41829 11.22058 36019 ft 484 kts 352°
2026-05-07 14:35 50.48582 11.20958 36021 ft 486 kts 352°
2026-05-07 14:36 50.55316 11.19923 36032 ft 487 kts 353°
2026-05-07 14:36 50.62074 11.18905 36021 ft 488 kts 353°
2026-05-07 14:37 50.68839 11.17887 36027 ft 488 kts 353°
2026-05-07 14:37 50.78945 11.16293 36043 ft 486 kts 353°
2026-05-07 14:38 50.85679 11.15252 36068 ft 486 kts 353°
2026-05-07 14:38 50.92433 11.14221 36059 ft 488 kts 353°
2026-05-07 14:39 50.99140 11.13198 36028 ft 474 kts 353°
2026-05-07 14:39 51.02337 11.12709 36030 ft 462 kts 353°
2026-05-07 14:39 51.05525 11.12223 36042 ft 460 kts 353°
2026-05-07 14:40 51.11839 11.10878 36065 ft 456 kts 345°
2026-05-07 14:40 51.17837 11.07741 36059 ft 453 kts 334°
2026-05-07 14:41 51.23562 11.03513 36052 ft 454 kts 333°
2026-05-07 14:41 51.29282 10.99386 36065 ft 454 kts 334°
2026-05-07 14:42 51.35053 10.95256 36053 ft 455 kts 334°
2026-05-07 14:42 51.40861 10.91166 36058 ft 457 kts 335°
2026-05-07 14:43 51.46764 10.87366 36064 ft 457 kts 337°
2026-05-07 14:43 51.52666 10.83606 36062 ft 456 kts 336°
2026-05-07 14:44 51.58509 10.79808 36065 ft 456 kts 336°
2026-05-07 14:44 51.64350 10.75997 35593 ft 449 kts 336°
2026-05-07 14:45 51.67233 10.74106 35169 ft 445 kts 336°
2026-05-07 14:45 51.70085 10.72227 34769 ft 441 kts 336°
2026-05-07 14:45 51.72914 10.70370 34357 ft 437 kts 336°
2026-05-07 14:45 51.75712 10.68535 33953 ft 432 kts 336°
2026-05-07 14:46 51.78480 10.66696 33534 ft 428 kts 336°
2026-05-07 14:46 51.81227 10.64888 33109 ft 425 kts 337°
2026-05-07 14:46 51.83970 10.63076 32707 ft 422 kts 337°
2026-05-07 14:46 51.86623 10.61314 32327 ft 418 kts 337°
2026-05-07 14:47 51.89310 10.59528 31907 ft 415 kts 337°
2026-05-07 14:47 51.91974 10.57756 31490 ft 414 kts 337°
2026-05-07 14:47 51.94622 10.55989 31042 ft 411 kts 337°
2026-05-07 14:47 51.97229 10.54174 30545 ft 399 kts 331°
2026-05-07 14:48 51.99374 10.51528 29446 ft 382 kts 310°
2026-05-07 14:48 52.00824 10.47991 28039 ft 374 kts 293°
2026-05-07 14:48 52.01700 10.44063 26600 ft 367 kts 286°
2026-05-07 14:48 52.02442 10.40124 25150 ft 362 kts 286°
2026-05-07 14:49 52.03162 10.36244 23729 ft 356 kts 286°
2026-05-07 14:49 52.03870 10.32431 22348 ft 349 kts 286°
2026-05-07 14:49 52.04559 10.28710 21024 ft 340 kts 286°
2026-05-07 14:49 52.05237 10.25097 19821 ft 329 kts 286°
2026-05-07 14:50 52.05878 10.21664 18739 ft 314 kts 286°
2026-05-07 14:50 52.06506 10.18325 17620 ft 305 kts 286°
2026-05-07 14:50 52.07120 10.15090 16516 ft 296 kts 286°
2026-05-07 14:50 52.07718 10.11922 15327 ft 291 kts 287°
2026-05-07 14:51 52.08304 10.08805 14139 ft 285 kts 287°
2026-05-07 14:51 52.08876 10.05746 12978 ft 280 kts 287°
2026-05-07 14:51 52.09436 10.02743 11847 ft 274 kts 287°
2026-05-07 14:51 52.09992 9.99777 10859 ft 280 kts 287°
2026-05-07 14:52 52.10735 9.96855 10433 ft 278 kts 300°
2026-05-07 14:52 52.11756 9.94242 10228 ft 269 kts 303°
2026-05-07 14:52 52.12764 9.91749 10075 ft 257 kts 303°
2026-05-07 14:52 52.13738 9.89340 10089 ft 255 kts 303°
2026-05-07 14:53 52.14715 9.86914 10016 ft 256 kts 303°
2026-05-07 14:53 52.15688 9.84499 9819 ft 253 kts 305°
2026-05-07 14:53 52.16683 9.82159 9464 ft 251 kts 305°
2026-05-07 14:53 52.17661 9.79800 9097 ft 251 kts 304°
2026-05-07 14:54 52.18614 9.77424 8763 ft 251 kts 304°
2026-05-07 14:54 52.19558 9.75052 8428 ft 248 kts 303°
2026-05-07 14:54 52.20496 9.72695 8074 ft 248 kts 304°
2026-05-07 14:54 52.21429 9.70334 7735 ft 246 kts 304°
2026-05-07 14:55 52.22345 9.68014 7442 ft 242 kts 304°
2026-05-07 14:55 52.23257 9.65702 7005 ft 243 kts 304°
2026-05-07 14:55 52.24160 9.63396 6620 ft 244 kts 303°
2026-05-07 14:55 52.25069 9.61076 6313 ft 242 kts 304°
2026-05-07 14:56 52.25966 9.58762 5980 ft 240 kts 304°
2026-05-07 14:56 52.26852 9.56468 5631 ft 237 kts 302°
2026-05-07 14:56 52.27748 9.54220 5198 ft 239 kts 303°
2026-05-07 14:56 52.28655 9.51914 5080 ft 241 kts 305°
2026-05-07 14:57 52.29544 9.49643 5077 ft 234 kts 302°
2026-05-07 14:57 52.30355 9.47368 5077 ft 235 kts 297°
2026-05-07 14:57 52.31166 9.45047 5106 ft 243 kts 303°
2026-05-07 14:57 52.32105 9.42762 5129 ft 239 kts 307°
2026-05-07 14:58 52.32971 9.40500 5087 ft 238 kts 305°
2026-05-07 14:58 52.33925 9.38241 5026 ft 246 kts 310°
2026-05-07 14:58 52.35197 9.36563 4911 ft 234 kts 338°
2026-05-07 14:58 52.36720 9.35661 4622 ft 236 kts 343°
2026-05-07 14:59 52.38291 9.34798 4268 ft 238 kts 343°
2026-05-07 14:59 52.39867 9.33947 3901 ft 238 kts 344°
2026-05-07 14:59 52.41444 9.33093 3543 ft 238 kts 343°
2026-05-07 14:59 52.42997 9.32242 3389 ft 232 kts 344°
2026-05-07 15:00 52.44522 9.31583 3283 ft 221 kts 357°
2026-05-07 15:00 52.45981 9.32011 3136 ft 211 kts 30°
2026-05-07 15:00 52.46941 9.33712 3063 ft 205 kts 66°
2026-05-07 15:00 52.47243 9.36007 2991 ft 208 kts 82°
2026-05-07 15:01 52.47377 9.38347 2979 ft 209 kts 83°
2026-05-07 15:01 52.47461 9.40729 2972 ft 210 kts 88°
2026-05-07 15:01 52.47432 9.43125 2789 ft 210 kts 91°
2026-05-07 15:01 52.47363 9.45446 2509 ft 193 kts 90°
2026-05-07 15:02 52.47302 9.47577 2305 ft 178 kts 90°
2026-05-07 15:02 52.47289 9.49489 2041 ft 159 kts 91°
2026-05-07 15:02 52.47217 9.51196 1840 ft 143 kts 92°
2026-05-07 15:02 52.47166 9.52807 1675 ft 142 kts 91°
2026-05-07 15:03 52.47119 9.54436 1480 ft 144 kts 92°
2026-05-07 15:03 52.47076 9.56080 1289 ft 145 kts 92°
2026-05-07 15:03 52.47030 9.57727 1101 ft 144 kts 92°
2026-05-07 15:03 52.46985 9.59371 907 ft 144 kts 91°
2026-05-07 15:04 52.46940 9.61007 713 ft 143 kts 92°
2026-05-07 15:04 52.46894 9.62635 530 ft 143 kts 92°
2026-05-07 15:04 52.46852 9.64249 329 ft 144 kts 91°
2026-05-07 15:04 52.46808 9.65878 208 ft 140 kts 92°
2026-05-07 15:05 52.46770 9.67303 185 ft 102 kts 92°
2026-05-07 15:05 52.46739 9.68022 198 ft 27 kts 113°
2026-05-07 15:05 52.46619 9.68194 174 ft 16 kts 146°
2026-05-07 15:05 52.46598 9.68217 182 ft 0 kts 145°
2026-05-07 15:06 52.46583 9.68234 183 ft 11 kts 144°
2026-05-07 15:06 52.46504 9.68332 184 ft 15 kts 142°
2026-05-07 15:06 52.46424 9.68433 184 ft 15 kts 142°
2026-05-07 15:07 52.46344 9.68535 191 ft 15 kts 142°
2026-05-07 15:07 52.46263 9.68637 195 ft 15 kts 142°
2026-05-07 15:07 52.46176 9.68748 196 ft 16 kts 142°
2026-05-07 15:07 52.46083 9.68866 182 ft 18 kts 142°
2026-05-07 15:08 52.45984 9.68991 182 ft 18 kts 142°
2026-05-07 15:08 52.45915 9.69123 181 ft 13 kts 92°
2026-05-07 15:08 52.45969 9.69207 181 ft 8 kts
2026-05-07 15:08 52.46013 9.69170 180 ft 5 kts 290°
2026-05-07 15:09 52.46009 9.69148 180 ft 0 kts 242°